{"data":{"norad_id":57852,"intl_designator":"2023-141N","name":"STARLINK-30431","alt_names":[],"object_type":"PAYLOAD","status":"ACTIVE","operator":null,"country":"US","launch_date":"2023-09-12","launch_site_code":"AFWTR","launch_vehicle":null,"mission":null,"orbit_class":"UNKNOWN","rcs_meters":null,"size_class":null,"mass_kg":null,"dimensions":null,"purposes":["comms"],"wikipedia_slug":null,"has_3d_model":false,"image_url":null,"decayed_at":null,"tle_current":{"epoch":"2026-05-25T02:44:43.448928Z","epoch_age_seconds":59191,"freshness":"FRESH","line1":"1 57852U 23141N   26145.11439177  .00000958  00000+0  44484-4 0  9998","line2":"2 57852  53.1613 288.8058 0001109 102.6936 257.4189 15.30196449152023","mean_motion":15.30196449,"eccentricity":0.0001109,"inclination_deg":53.1613,"raan_deg":288.8058,"arg_perigee_deg":102.6936,"mean_anomaly_deg":257.4189,"bstar":4.4484e-5,"rev_number":15202,"period_min":94.105564088915,"perigee_km":474.46563416542,"apogee_km":475.98571000609,"semimajor_km":6853.3626720858,"source":"CELESTRAK","updated_at":"2026-05-25T13:38:18.415506Z"}}}